Weather History for East Milton, MA

Change the Weather History Date:

Saturday, March 23, 2013

  Actual Average (KBOS) Record (KBOS)
Temperature  
Mean Temperature 32 °F 40 °F  
Max Temperature 41 °F 47 °F 78 °F (1938)
Min Temperature 26 °F 33 °F 6 °F (1934)
Degree Days  
Heating Degree Days 32 25  
Month to date heating degree days 641  
Since 1 July heating degree days 4683  
Cooling Degree Days 0 0  
Month to date cooling degree days 0  
Year to date cooling degree days 0  
Moisture  
Dew Point 17 °F    
Average Humidity 53    
Maximum Humidity 72    
Minimum Humidity 38    
Precipitation  
Precipitation 0.00 in 0.16 in 2.22 in (2010)
Month to date precipitation 3.16  
Year to date precipitation 9.77  
Snow  
Snow 0.00 in 0.20 in 2.90 in (1992)
Month to date snowfall 6.5  
Since 1 July snowfall 40.6  
Snow Depth -    
Sea Level Pressure  
Sea Level Pressure 29.72 in    
Wind  
Wind Speed 17 mph (WNW)    
Max Wind Speed 25 mph    
Max Gust Speed 39 mph    
T = Trace of Precipitation, MM = Missing Value Source: NWS Daily Summary

Daily Weather History Graph

Daily Weather History Graph

Search for Another Location

Airport:

Trip Planner

Search our weather history database for the weather conditions in past years. The results will help you decide how hot, cold, wet, or windy it might be!

Date:

Astronomy

Mar. 23, 2013 Rise Set
Actual Time 6:42 AM EDT 7:00 PM EDT
Civil Twilight 6:14 AM EDT 7:28 PM EDT
Nautical Twilight 5:41 AM EDT 8:01 PM EDT
Astronomical Twilight 5:07 AM EDT 8:35 PM EDT
Moon 3:20 PM EDT (3/23) 4:20 AM EDT (3/23)
Length of Visible Light 13h 14m
Length of Day
12h 18m
Waxing Gibbous, 85% of the Moon is Illuminated
Mar 23
Waxing Gibbous
Mar 27
Full
Apr 3
Last Quarter
Apr 10
New
Apr 18
First Quarter

Hourly Weather History & Observations

Time (EDT) Temp. Windchill Dew Point Humidity Pressure Visibility Wind Dir Wind Speed Gust Speed Precip Events Conditions
12:54 AM 28.0 °F 15.7 °F 17.1 °F 63% 29.75 in - WNW 17.3 mph 24.2 mph N/A   Unknown
1:54 AM 27.0 °F 15.6 °F 16.0 °F 63% 29.75 in - West 13.8 mph 21.9 mph N/A   Unknown
2:54 AM 26.1 °F 15.6 °F 16.0 °F 66% 29.75 in - WNW 11.5 mph - N/A   Unknown
3:54 AM 27.0 °F 15.2 °F 16.0 °F 63% 29.74 in - West 15.0 mph 23.0 mph N/A   Unknown
4:54 AM 27.0 °F 15.6 °F 18.0 °F 69% 29.73 in - West 13.8 mph - N/A   Unknown
5:54 AM 27.0 °F 15.6 °F 19.0 °F 72% 29.73 in - West 13.8 mph 24.2 mph N/A   Unknown
6:54 AM 27.0 °F 15.2 °F 19.0 °F 72% 29.73 in - West 15.0 mph - N/A   Unknown
7:54 AM 30.0 °F 17.5 °F 19.9 °F 66% 29.72 in - West 19.6 mph 28.8 mph N/A   Unknown
8:54 AM 32.0 °F 20.5 °F 19.9 °F 61% 29.72 in - West 18.4 mph 31.1 mph N/A   Unknown
9:54 AM 34.0 °F 22.1 °F 19.0 °F 54% 29.70 in - WNW 21.9 mph 39.1 mph N/A   Unknown
10:54 AM 34.0 °F 24.2 °F 17.1 °F 50% 29.70 in - WNW 15.0 mph 35.7 mph N/A   Unknown
11:54 AM 36.0 °F 24.4 °F 16.0 °F 44% 29.69 in - West 23.0 mph 31.1 mph N/A   Unknown
12:54 PM 37.0 °F 25.4 °F 16.0 °F 42% 29.68 in - West 25.3 mph 35.7 mph N/A   Unknown
1:54 PM 39.0 °F 28.3 °F 15.1 °F 38% 29.67 in - West 24.2 mph 33.4 mph N/A   Unknown
2:54 PM 39.0 °F 29.3 °F 16.0 °F 39% 29.65 in - WNW 19.6 mph 33.4 mph N/A   Unknown
3:54 PM 39.0 °F 28.8 °F 16.0 °F 39% 29.66 in - WNW 21.9 mph 38.0 mph N/A   Unknown
4:54 PM 39.9 °F 30.2 °F 17.1 °F 40% 29.66 in - WNW 20.7 mph 34.5 mph N/A   Unknown
5:54 PM 39.0 °F 29.6 °F 18.0 °F 43% 29.68 in - WNW 18.4 mph 28.8 mph N/A   Unknown
6:00 PM - - - N/A% - - North - - N/A   Unknown
6:54 PM 37.9 °F 29.2 °F 16.0 °F 41% 29.71 in - WNW 15.0 mph 33.4 mph N/A   Unknown
7:54 PM 36.0 °F 26.7 °F 17.1 °F 46% 29.75 in - NW 15.0 mph 25.3 mph N/A   Unknown
8:54 PM 35.1 °F 26.4 °F 17.1 °F 48% 29.79 in - NW 12.7 mph 23.0 mph N/A   Unknown
9:54 PM 34.0 °F 24.2 °F 17.1 °F 50% 29.78 in - WNW 15.0 mph 23.0 mph N/A   Unknown
10:54 PM 33.1 °F 23.0 °F 18.0 °F 54% 29.80 in - WNW 15.0 mph 21.9 mph N/A   Unknown
11:54 PM 32.0 °F 20.8 °F 17.1 °F 54% 29.79 in - West 17.3 mph 24.2 mph N/A   Unknown